Location: Unspecified
(0.0000°N, 0.0000°E)
Time: 08:31:31
(UTC+00:00)

TECHNOSAT - Visible Passes

Search period start: 10 June 2023 00:00
Search period end: 20 June 2023 00:00
Orbit: 578 x 595 km, 97.4° (Epoch: 10 June)

Date Brightness Start Highest point End Pass type
(mag) Time Alt. Az. Time Alt. Az. Time Alt. Az.
10 Jun ? 18:55:38 10° N 18:59:37 49° W 19:03:36 10° SSW visible
11 Jun ? 19:02:46 10° N 19:06:36 37° W 19:10:25 10° SSW visible
12 Jun ? 19:09:58 10° NNW 19:13:34 29° WNW 19:17:10 10° SW visible
13 Jun ? 19:17:16 10° NNW 19:20:33 23° WNW 19:23:50 10° SW visible
14 Jun ? 19:24:39 10° NW 19:27:30 18° WNW 19:30:23 10° WSW visible
15 Jun ? 19:32:13 10° NW 19:34:28 14° WNW 19:36:44 10° WSW visible
16 Jun ? 19:40:09 10° WNW 19:41:25 11° WNW 19:42:42 10° W visible
19 Jun ? 18:23:03 10° NNE 18:27:03 53° E 18:31:03 10° S visible
